[[{"header":{"parameterUnit":"m.s-1","parameterCategory":1,"la1":30.2991,"la2":30.254,"lo1":-89.0895,"lo2":-89.0444,"dy":0.0017,"dx":0.0017,"nx":28,"ny":28,"refTime":"2025-09-14T03:00:00:Z","depth":0,"parameterNumber":2,"parameterNumberName":"U-component_of_WINDS"},"data":[0,0,0,0,0,0,0,0,0,0,0,0,0,0,0,0,0,0,0,0,0,0,0,0,0,0,0,0,0,0,0,0,0,0,0,0,0,0,0,0,0,0,0,0,0,0,0,0,0,0,0,0,0,0,0,0,0,0,0.2752,0.2753,0,0.2834,0.2835,0.2836,0.2893,0.2894,0.2894,0.2895,0.2975,0.2977,0.2978,0,0,0,0,0,0,0,0,0,0,0,0,0,0.2641,0.2643,0.2752,0.2753,0.2754,0.2834,0.2835,0.2836,0.2893,0.2894,0.2895,0.2895,0.2974,0.2976,0.2978,0,0,0,0,0,0,0,0,0,0,0,0,0,0.2703,0.2643,0.2752,0.2792,0.2797,0.2834,0.2835,0.2836,0.2893,0.2894,0.2895,0.2895,0.2974,0.2976,0.2979,0.298,0,0,0.2986,0.2988,0,0,0,0,0,0,0,0,0.2699,0.2707,0.2785,0.279,0.2795,0.2854,0.2825,0.2885,0.2893,0.2856,0.2895,0.2896,0.2934,0.294,0.2954,0.2984,0.2988,0.2987,0.2988,0.2989,0.299,0,0,0,0,0,0,0,0.2695,0.2703,0.2784,0.2786,0.2792,0.2805,0.2815,0.2837,0.289,0.286,0.2864,0.2873,0.2937,0.2951,0.2956,0.2989,0.2987,0.2989,0.299,0.2991,0.3024,0.3023,0,0,0,0,0,0,0.2685,0.2699,0.2782,0.2787,0.2748,0.2807,0.2817,0.2834,0.289,0.2899,0.2873,0.2876,0.2946,0.2953,0.2959,0.2964,0.2989,0.2992,0.2993,0.3025,0.3024,0.3023,0,0,0,0,0,0,0.2682,0.2691,0.2778,0.2744,0.2756,0.2808,0.2827,0.2836,0.285,0.29,0.2909,0.2878,0.2947,0.2955,0.2975,0.2968,0.2993,0.2995,0.3025,0.3024,0.3024,0.2974,0,0,0,0,0,0,0.2679,0.269,0.2692,0.2744,0.2758,0.2794,0.2826,0.2837,0.2855,0.286,0.2907,0.2916,0.2948,0.2971,0.2977,0.2972,0.2997,0.3026,0.3025,0.3024,0.2977,0.2972,0.2968,0,0,0,0,0,0.2674,0.2675,0.2692,0.2702,0.2762,0.2793,0.2801,0.284,0.2854,0.2856,0.2888,0.2914,0.2967,0.2972,0.298,0.2975,0.3027,0.3025,0.3024,0.2979,0.2973,0.2968,0,0,0,0,0,0,0.2619,0.2682,0.2702,0.2719,0.2751,0.2803,0.2807,0.2832,0.2859,0.2862,0.2908,0.2918,0.2933,0.2956,0.296,0.2979,0.3,0.3,0.2963,0.2958,0.2953,0.2947,0.2999,0,0,0,0,0,0.2609,0.2631,0.2684,0.2694,0.2709,0.2755,0.277,0.2797,0.2831,0.2844,0.2877,0.2908,0.2932,0.2946,0.2971,0.2981,0.2991,0.2981,0.2976,0.2972,0.2971,0.2977,0.2973,0.3018,0.3018,0.3018,0,0,0.2588,0.2625,0.2636,0.2684,0.2711,0.2731,0.2766,0.2785,0.28,0.2847,0.2867,0.2893,0.293,0.2944,0.2952,0.2964,0.2961,0.297,0.2967,0.2968,0.2975,0.2971,0.2967,0.3017,0.3017,0.3018,0,0,0.256,0.2591,0.2603,0.263,0.2671,0.2702,0.2705,0.2753,0.2772,0.2794,0.2829,0.2847,0.2887,0.2912,0.2929,0.2911,0.2935,0.2917,0.2893,0.2898,0.2894,0.2891,0.2883,0.288,0.2917,0.2916,0.2916,0,0.2529,0.2562,0.2605,0.2623,0.2642,0.2686,0.2697,0.2721,0.2768,0.2779,0.2793,0.2844,0.2872,0.2892,0.2887,0.2901,0.2904,0.2912,0.2892,0.2889,0.2887,0.288,0.2877,0.2914,0.2914,0.2914,0.2915,0,0.252,0.2542,0.2546,0.2592,0.2612,0.2626,0.2669,0.2684,0.2709,0.2738,0.2759,0.2795,0.2827,0.2834,0.2858,0.2857,0.2863,0.2883,0.2905,0.2879,0.2873,0.2871,0.291,0.2911,0.2912,0.2913,0,0,0.2459,0.2529,0.2529,0.255,0.2599,0.2616,0.2632,0.2665,0.2676,0.2707,0.272,0.2753,0.2772,0.2792,0.282,0.2824,0.2806,0.2844,0.2845,0.2834,0.2805,0.2789,0.2786,0.2823,0.2823,0.2822,0.2802,0,0.2437,0.247,0.2509,0.2527,0.2547,0.2589,0.2603,0.2634,0.2661,0.2681,0.2711,0.2733,0.2757,0.2769,0.2776,0.2807,0.28,0.2809,0.2834,0.2834,0.2822,0.2783,0.2766,0.2745,0.28,0.28,0.2799,0,0.2417,0.2447,0.2467,0.2514,0.2524,0.2536,0.2569,0.2588,0.2623,0.2643,0.2665,0.2695,0.2712,0.2732,0.2756,0.2761,0.2773,0.279,0.279,0.2793,0.2814,0.2783,0.2739,0.2735,0.2797,0.2797,0.2797,0,0.2369,0.2414,0.2432,0.2448,0.2504,0.2511,0.2535,0.2571,0.2588,0.2616,0.2628,0.2657,0.2673,0.2694,0.273,0.2742,0.2749,0.2773,0.2765,0.2763,0.2763,0.2762,0.2719,0.2773,0.2773,0.2773,0.2773,0,0.234,0.235,0.2411,0.2422,0.2434,0.2479,0.2489,0.2516,0.2548,0.2564,0.2602,0.2616,0.2664,0.2683,0.2711,0.2725,0.2732,0.2747,0.2755,0.2743,0.2741,0.2751,0.2753,0.2773,0.2773,0.2773,0.2773,0,0.2288,0.2329,0.2351,0.2403,0.2416,0.2422,0.2466,0.2477,0.2507,0.2526,0.2533,0.2579,0.2604,0.2643,0.2678,0.2697,0.2705,0.2718,0.2694,0.2698,0.2687,0.2687,0.2648,0.2644,0.2701,0.27,0.27,0,0.2266,0.2275,0.2328,0.2342,0.2365,0.2387,0.2405,0.2448,0.2465,0.2506,0.2512,0.2539,0.2564,0.26,0.2635,0.2662,0.2675,0.266,0.2679,0.2667,0.2673,0.2672,0.2672,0.2655,0.2654,0.2653,0.2653,0,0.2223,0.2243,0.2268,0.23,0.2321,0.2348,0.2377,0.2385,0.2435,0.2452,0.2478,0.2497,0.2533,0.2559,0.2591,0.2614,0.264,0.2646,0.2646,0.2633,0.2618,0.2625,0.268,0.2647,0.2647,0.2648,0.2648,0.2648,0.2185,0.2195,0.2233,0.226,0.2287,0.2313,0.2326,0.2358,0.238,0.2414,0.2439,0.2462,0.2497,0.2543,0.2564,0.2582,0.2594,0.2593,0.2593,0.2592,0.2587,0.2616,0.2588,0.2588,0.2589,0.2589,0.2589,0,0.2142,0.217,0.2194,0.2234,0.2254,0.228,0.2313,0.2328,0.2349,0.2379,0.2403,0.2432,0.2457,0.2495,0.2523,0.253,0.2543,0.2536,0.2535,0.254,0.2575,0.2572,0.2525,0.2525,0.2525,0.2525,0.2525,0.2525,0.2123,0.2141,0.2165,0.2196,0.2223,0.2248,0.2265,0.2288,0.2313,0.2344,0.2366,0.2391,0.2424,0.2455,0.2479,0.249,0.2497,0.2486,0.25,0.2532,0.2537,0.2543,0.2541,0.2488,0.2488,0.2463,0.2463,0.2463]},{"header":{"parameterUnit":"m.s-1","parameterCategory":1,"la1":30.2991,"la2":30.254,"lo1":-89.0895,"lo2":-89.0444,"dy":0.0017,"dx":0.0017,"nx":28,"ny":28,"refTime":"2025-09-14T03:00:00:Z","depth":0,"parameterNumber":3,"parameterNumberName":"V-component_of_WINDS"},"data":[0,0,0,0,0,0,0,0,0,0,0,0,0,0,0,0,0,0,0,0,0,0,0,0,0,0,0,0,0,0,0,0,0,0,0,0,0,0,0,0,0,0,0,0,0,0,0,0,0,0,0,0,0,0,0,0,0,0,3.3126,3.3126,0,3.3093,3.3093,3.3092,3.3043,3.3042,3.3041,3.304,3.3006,3.3006,3.3005,0,0,0,0,0,0,0,0,0,0,0,0,0,3.3147,3.3147,3.3126,3.3126,3.3125,3.3093,3.3093,3.3092,3.3043,3.3042,3.3041,3.304,3.3006,3.3006,3.3005,0,0,0,0,0,0,0,0,0,0,0,0,0,3.3128,3.3147,3.3126,3.3097,3.3094,3.3093,3.3093,3.3092,3.3043,3.3042,3.304,3.3039,3.3006,3.3006,3.3005,3.3031,0,0,3.3005,3.3005,0,0,0,0,0,0,0,0,3.3129,3.3128,3.3102,3.3099,3.3096,3.3071,3.3087,3.3072,3.3043,3.3062,3.304,3.3039,3.3028,3.3026,3.3023,3.3029,3.3028,3.3005,3.3005,3.3005,3.3005,0,0,0,0,0,0,0,3.3131,3.3129,3.3113,3.3101,3.3098,3.3085,3.3081,3.3084,3.3053,3.3061,3.3057,3.3054,3.3026,3.3023,3.3022,3.3027,3.3005,3.3005,3.3005,3.3005,3.3053,3.3054,0,0,0,0,0,0,3.3136,3.313,3.3114,3.3112,3.311,3.3086,3.3082,3.308,3.3053,3.3048,3.3055,3.3052,3.3024,3.3022,3.302,3.3048,3.3005,3.3005,3.3005,3.3051,3.3053,3.3054,0,0,0,0,0,0,3.3137,3.3135,3.3116,3.312,3.3117,3.3087,3.3086,3.308,3.3077,3.3049,3.3043,3.3057,3.3023,3.302,3.3029,3.3046,3.3005,3.3004,3.305,3.3052,3.3054,3.3104,0,0,0,0,0,0,3.3138,3.3136,3.3145,3.3121,3.3117,3.3125,3.3087,3.308,3.3077,3.3072,3.3049,3.3044,3.3022,3.3029,3.3028,3.3045,3.3004,3.3048,3.3051,3.3053,3.31,3.3107,3.3113,0,0,0,0,0,3.3139,3.316,3.3146,3.3144,3.3128,3.3126,3.3123,3.3097,3.3078,3.3087,3.3069,3.3045,3.3045,3.303,3.3029,3.3046,3.3047,3.305,3.3053,3.3097,3.3106,3.3113,0,0,0,0,0,0,3.3187,3.3157,3.314,3.3155,3.3143,3.3117,3.3128,3.3107,3.31,3.3096,3.3064,3.3059,3.3071,3.3059,3.3044,3.3069,3.3042,3.3045,3.3076,3.3084,3.309,3.3092,3.3004,0,0,0,0,0,3.32,3.3201,3.3174,3.3189,3.3185,3.3157,3.3156,3.3137,3.3123,3.3118,3.31,3.3088,3.3085,3.3084,3.308,3.3099,3.3093,3.311,3.3116,3.3122,3.3124,3.3133,3.314,3.3064,3.3064,3.3064,0,0,3.3226,3.3209,3.3211,3.3199,3.3188,3.3189,3.3154,3.3157,3.3158,3.3118,3.3125,3.3112,3.3096,3.311,3.3115,3.31,3.3144,3.3125,3.313,3.313,3.3137,3.3144,3.3151,3.3066,3.3066,3.3066,0,0,3.3273,3.3261,3.3272,3.3262,3.3246,3.3227,3.323,3.3208,3.3198,3.3204,3.3174,3.3175,3.3171,3.3161,3.3155,3.32,3.3178,3.32,3.3233,3.3242,3.3248,3.3253,3.3269,3.3275,3.3203,3.3203,3.3203,0,3.3307,3.3308,3.3281,3.3286,3.3281,3.3246,3.3257,3.3249,3.3232,3.323,3.3214,3.3208,3.3195,3.3206,3.3217,3.3214,3.3216,3.3202,3.3249,3.3254,3.3259,3.3273,3.3279,3.3206,3.3205,3.3205,3.3205,0,3.335,3.3352,3.3363,3.3348,3.3345,3.3353,3.3327,3.3327,3.3309,3.3292,3.3299,3.3283,3.3274,3.3276,3.3258,3.3284,3.3276,3.3255,3.3227,3.3269,3.3282,3.3288,3.321,3.3209,3.3208,3.3207,0,0,3.3426,3.3397,3.3401,3.3394,3.3374,3.3375,3.3382,3.3374,3.3374,3.3365,3.3369,3.3367,3.3348,3.3342,3.3323,3.3331,3.3367,3.3309,3.3308,3.332,3.3395,3.341,3.3417,3.3353,3.3354,3.3354,3.3396,0,3.3469,3.3479,3.3455,3.3471,3.3472,3.344,3.3446,3.3434,3.3419,3.3418,3.3402,3.3401,3.3376,3.3372,3.3379,3.3361,3.3382,3.3358,3.3356,3.3357,3.3361,3.3424,3.344,3.348,3.3401,3.3402,3.3403,0,3.352,3.3513,3.3529,3.3509,3.3508,3.3514,3.3505,3.3505,3.3491,3.348,3.3474,3.3451,3.3457,3.3431,3.3438,3.3422,3.342,3.3412,3.3413,3.3411,3.3382,3.3423,3.3492,3.3498,3.3411,3.341,3.3409,0,3.3573,3.3568,3.3577,3.3572,3.3548,3.3553,3.3543,3.3529,3.3526,3.3518,3.3516,3.351,3.3506,3.3501,3.3478,3.3461,3.3487,3.3459,3.3478,3.3479,3.3484,3.3484,3.3553,3.3484,3.3484,3.3484,3.3484,0,3.3623,3.3634,3.36,3.3606,3.3617,3.359,3.3602,3.3589,3.3577,3.3579,3.3551,3.3554,3.3523,3.3523,3.3504,3.3513,3.3511,3.3502,3.3497,3.3504,3.3506,3.3502,3.3498,3.3486,3.3485,3.3485,3.3485,0,3.3684,3.3662,3.3669,3.3647,3.3641,3.3651,3.3631,3.3636,3.362,3.3623,3.3622,3.3597,3.3595,3.3572,3.3565,3.3552,3.3568,3.3558,3.3572,3.3569,3.3589,3.3587,3.3658,3.3665,3.3592,3.3593,3.3594,0,3.3716,3.3724,3.3703,3.3703,3.3694,3.3694,3.3691,3.3665,3.3663,3.3649,3.3655,3.3651,3.3646,3.3645,3.3625,3.362,3.3609,3.3634,3.3608,3.3615,3.3609,3.3609,3.3609,3.364,3.3641,3.3641,3.3642,0,3.3777,3.3766,3.3763,3.3756,3.3754,3.3747,3.3739,3.374,3.3711,3.3711,3.3709,3.3705,3.3698,3.3695,3.3686,3.3676,3.3654,3.3651,3.3655,3.3662,3.367,3.3665,3.3587,3.3649,3.3648,3.3648,3.3647,3.3647,3.3824,3.383,3.3816,3.3813,3.3804,3.3798,3.3801,3.3785,3.3783,3.3776,3.376,3.3761,3.3747,3.3734,3.3726,3.3725,3.3712,3.3718,3.372,3.3721,3.3725,3.3671,3.3724,3.3724,3.3723,3.3723,3.3723,0,3.3883,3.3872,3.3871,3.386,3.3858,3.3839,3.3829,3.3829,3.383,3.3819,3.3815,3.3813,3.381,3.3791,3.3785,3.3789,3.3779,3.3788,3.3787,3.3785,3.3737,3.3734,3.3797,3.3797,3.3797,3.3797,3.3797,3.3797,3.3913,3.3921,3.3909,3.3913,3.3902,3.3902,3.3898,3.3892,3.3883,3.3882,3.388,3.3868,3.3854,3.3847,3.3843,3.3838,3.3837,3.385,3.3841,3.3796,3.3789,3.3782,3.3779,3.385,3.385,3.3889,3.3889,3.389]}]]